Stations météo

réclame
Mon MeteoGroup
Logan Botanic Garden, Grande-Bretagne (99193): Température de l'air & dewpoint: 14.05.2019 04:00:00 - 20.05.2019 04:00:00 (BST)Logan Botanic Garden, Grande-Bretagne (99193): Température de l'air -20cm: 14.05.2019 04:00:00 - 20.05.2019 04:00:00 (BST)Logan Botanic Garden, Grande-Bretagne (99193): Quantités de précipitations: 14.05.2019 04:00:00 - 20.05.2019 04:00:00 (BST)
Date & Time tt [°C] td [°C] tt -20cm [°C] rr [mm]
20.05.2019 04:00:00 9,1 8,4 - 0,0
20.05.2019 03:00:00 9,2 8,3 - 0,0
20.05.2019 02:00:00 9,2 8,3 - 0,0
20.05.2019 01:00:00 9,5 8,4 - 0,0
20.05.2019 00:00:00 9,7 8,5 - 0,0
19.05.2019 23:00:00 9,8 8,8 - 0,0
19.05.2019 22:00:00 9,9 9,0 - 0,0
19.05.2019 21:00:00 10,1 9,0 - 0,0
19.05.2019 20:00:00 10,5 9,0 - 0,0
19.05.2019 19:00:00 10,9 9,0 - 0,0
19.05.2019 18:00:00 11,2 9,4 - 0,0
19.05.2019 17:00:00 11,4 9,3 - 0,0
19.05.2019 16:00:00 12,4 9,7 - 0,0
19.05.2019 15:00:00 12,3 9,1 - 0,0
19.05.2019 14:00:00 12,7 9,5 - 0,0
19.05.2019 13:00:00 11,6 9,8 - 0,0
19.05.2019 12:00:00 11,6 9,5 - 0,0
19.05.2019 11:00:00 11,1 9,1 - 0,0
19.05.2019 10:00:00 10,8 9,0 5,5 0,0
19.05.2019 09:00:00 11,2 9,5 - 0,0
19.05.2019 08:00:00 10,3 9,0 - 0,0
19.05.2019 07:00:00 9,5 8,7 - 0,0
19.05.2019 06:00:00 9,1 8,4 - 0,0
19.05.2019 05:00:00 9,0 8,4 - 0,0
19.05.2019 04:00:00 9,1 8,3 - 0,0
19.05.2019 03:00:00 9,0 8,4 - 0,0
19.05.2019 02:00:00 9,2 8,8 - 0,0
19.05.2019 01:00:00 9,4 9,1 - 0,0
19.05.2019 00:00:00 9,6 9,1 - 0,0
18.05.2019 23:00:00 9,7 9,5 - 0,0
18.05.2019 22:00:00 9,7 9,5 - 0,0
18.05.2019 21:00:00 10,0 9,6 - 0,0
18.05.2019 20:00:00 10,2 9,8 - 0,2
18.05.2019 19:00:00 10,7 10,1 - 0,2
18.05.2019 18:00:00 10,7 10,2 - 0,0
18.05.2019 17:00:00 10,8 10,0 - 0,2
18.05.2019 16:00:00 11,5 9,7 - 0,0
18.05.2019 15:00:00 11,5 10,0 - 0,0
18.05.2019 14:00:00 10,9 8,6 - 0,0
18.05.2019 13:00:00 10,9 9,0 - 0,0
18.05.2019 12:00:00 11,2 8,8 - 0,0
18.05.2019 11:00:00 10,5 8,9 - 0,0
18.05.2019 10:00:00 10,6 8,4 2,2 0,0
18.05.2019 09:00:00 10,5 8,5 - 0,0
18.05.2019 08:00:00 10,2 8,3 - 0,0
18.05.2019 07:00:00 10,1 8,1 - 0,0
18.05.2019 06:00:00 9,9 7,9 - 0,0
18.05.2019 05:00:00 9,9 7,6 - 0,0
18.05.2019 04:00:00 9,5 6,5 - 0,0
18.05.2019 03:00:00 10,0 4,6 - 0,0
18.05.2019 02:00:00 9,9 4,7 - 0,0
18.05.2019 01:00:00 10,2 5,9 - 0,0
18.05.2019 00:00:00 11,8 7,8 - 0,0
17.05.2019 23:00:00 12,8 6,3 - 0,0
17.05.2019 22:00:00 13,4 7,9 - 0,0
17.05.2019 21:00:00 14,3 8,7 - 0,0
17.05.2019 20:00:00 13,2 11,2 - 0,0
17.05.2019 19:00:00 13,4 10,0 - 0,0
17.05.2019 18:00:00 12,3 7,9 - 0,0
17.05.2019 17:00:00 13,0 8,7 - 0,0
17.05.2019 16:00:00 13,9 8,9 - 0,0
17.05.2019 15:00:00 15,4 9,5 - 0,0
17.05.2019 14:00:00 15,3 7,8 - 0,0
17.05.2019 13:00:00 15,8 4,8 - 0,0
17.05.2019 12:00:00 14,5 4,2 - 0,0
17.05.2019 11:00:00 12,6 6,3 - 0,0
17.05.2019 10:00:00 12,0 5,7 5,5 0,0
17.05.2019 09:00:00 11,7 4,6 - 0,0
17.05.2019 08:00:00 11,2 5,0 - 0,0
17.05.2019 07:00:00 10,6 5,1 - 0,0
17.05.2019 06:00:00 10,0 5,1 - 0,0
17.05.2019 05:00:00 10,0 5,0 - 0,0
17.05.2019 04:00:00 9,6 5,5 - 0,0
17.05.2019 03:00:00 8,7 5,3 - 0,0
17.05.2019 02:00:00 8,9 6,3 - 0,0
17.05.2019 01:00:00 9,9 7,0 - 0,0
17.05.2019 00:00:00 10,3 6,6 - 0,0
16.05.2019 23:00:00 10,5 6,6 - 0,0
16.05.2019 22:00:00 11,4 6,0 - 0,0
16.05.2019 21:00:00 11,8 5,7 - 0,0
16.05.2019 20:00:00 12,8 6,2 - 0,0
16.05.2019 19:00:00 13,6 6,2 - 0,0
16.05.2019 18:00:00 14,3 6,8 - 0,0
16.05.2019 17:00:00 14,4 7,0 - 0,0
16.05.2019 16:00:00 14,5 6,5 - 0,0
16.05.2019 15:00:00 14,7 5,4 - 0,0
16.05.2019 14:00:00 13,7 6,3 - 0,0
16.05.2019 13:00:00 13,0 7,5 - 0,0
16.05.2019 12:00:00 12,5 7,8 - 0,0
16.05.2019 11:00:00 12,2 8,3 - 0,0
16.05.2019 10:00:00 11,5 8,2 1,4 0,0
16.05.2019 09:00:00 11,7 7,3 - 0,0
16.05.2019 08:00:00 11,7 7,6 - 0,0
16.05.2019 07:00:00 11,2 8,1 - 0,0
16.05.2019 06:00:00 11,3 8,1 - 0,0
16.05.2019 05:00:00 11,7 8,7 - 0,0
16.05.2019 04:00:00 11,7 9,1 - 0,0
16.05.2019 03:00:00 11,6 7,6 - 0,0
16.05.2019 02:00:00 9,0 7,5 - 0,0
16.05.2019 01:00:00 9,1 7,5 - 0,0
16.05.2019 00:00:00 9,2 6,6 - 0,0
15.05.2019 23:00:00 10,0 7,4 - 0,0
15.05.2019 22:00:00 10,6 8,2 - 0,0
15.05.2019 21:00:00 12,6 8,4 - 0,0
15.05.2019 20:00:00 13,9 8,2 - 0,0
15.05.2019 19:00:00 14,5 5,3 - 0,0
15.05.2019 18:00:00 14,0 7,6 - 0,0
15.05.2019 17:00:00 14,5 8,4 - 0,0
15.05.2019 16:00:00 14,6 8,5 - 0,0
15.05.2019 15:00:00 15,3 5,9 - 0,0
15.05.2019 14:00:00 15,4 9,1 - 0,0
15.05.2019 13:00:00 13,8 9,7 - 0,0
15.05.2019 12:00:00 13,9 9,8 - 0,0
15.05.2019 11:00:00 13,7 10,3 - 0,0
15.05.2019 10:00:00 13,2 10,0 6,7 0,0
15.05.2019 09:00:00 13,5 10,3 - 0,0
15.05.2019 08:00:00 12,5 10,2 - 0,0
15.05.2019 07:00:00 11,3 9,6 - 0,0
15.05.2019 06:00:00 10,6 9,0 - 0,0
15.05.2019 05:00:00 10,8 8,1 - 0,0
15.05.2019 04:00:00 8,7 6,4 - 0,0
15.05.2019 03:00:00 8,8 7,0 - 0,0
15.05.2019 02:00:00 8,3 7,4 - 0,0
15.05.2019 01:00:00 9,1 8,1 - 0,0
15.05.2019 00:00:00 9,4 6,8 - 0,0
14.05.2019 23:00:00 9,7 6,7 - 0,0
14.05.2019 22:00:00 10,1 7,1 - 0,0
14.05.2019 21:00:00 11,8 5,7 - 0,0
14.05.2019 20:00:00 13,4 6,0 - 0,0
14.05.2019 19:00:00 14,9 7,7 - 0,0
14.05.2019 18:00:00 15,4 8,0 - 0,0
14.05.2019 17:00:00 16,5 8,8 - 0,0
14.05.2019 16:00:00 15,6 6,6 - 0,0
14.05.2019 15:00:00 15,4 8,6 - 0,0
14.05.2019 14:00:00 14,9 8,1 - 0,0
14.05.2019 13:00:00 14,4 10,5 - 0,0
14.05.2019 12:00:00 14,2 10,8 - 0,0
14.05.2019 11:00:00 12,8 10,0 - 0,0
14.05.2019 10:00:00 12,7 10,3 11,4 0,0
14.05.2019 09:00:00 11,9 9,3 - 0,0
14.05.2019 08:00:00 11,2 8,9 - 0,0
14.05.2019 07:00:00 9,5 8,5 - 0,0
14.05.2019 06:00:00 7,0 6,5 - 0,0
14.05.2019 05:00:00 7,4 6,3 - 0,0
14.05.2019 04:00:00 8,7 7,2 - 0,0

tt = Température de l'air
td = dewpoint
tt -20cm = Température de l'air -20cm
rr = Quantités de précipitations

stations d'obs. à proximité